Saginaw, MI

12:06 PM EDT on September 24, 2017 (GMT -0400)
MBS International

Weather History for KMBS - December, 2012

Change the Weather History Date:

Sunday, December 2, 2012

  Actual Average Record
Temperature  
Mean Temperature 51 °F 32 °F  
Max Temperature 57 °F 38 °F 57 °F (1998)
Min Temperature 44 °F 26 °F 5 °F (2002)
Degree Days  
Heating Degree Days 14    
Month to date heating degree days  
Since 1 July heating degree days  
Cooling Degree Days 0    
Month to date cooling degree days  
Year to date cooling degree days  
Growing Degree Days 1 (Base 50)    
Moisture  
Dew Point 48 °F    
Average Humidity 83    
Maximum Humidity 93    
Minimum Humidity 71    
Precipitation  
Precipitation 0.48 in 0.07 in 0.48 in (2012)
Month to date precipitation 0.14  
Year to date precipitation 29.82  
Snow  
Snow 0.00 in - - ()
Month to date snowfall  
Since 1 July snowfall  
Snow Depth -    
Sea Level Pressure  
Sea Level Pressure 29.94 in    
Wind  
Wind Speed 9 mph (WSW)    
Max Wind Speed 14 mph    
Max Gust Speed -    
Visibility 7 miles    
Events Rain    
T = Trace of Precipitation, MM = Missing Value Source: NWS Daily Summary

Daily Weather History Graph

Daily Weather History Graph

Search for Another Location

Airport or City:

Trip Planner

Search our weather history database for the weather conditions in past years. The results will help you decide how hot, cold, wet, or windy it might be!

Date:

Astronomy

Dec. 02, 2012 Rise Set
Actual Time 7:51 AM EST 5:00 PM EST
Civil Twilight 7:18 AM EST 5:32 PM EST
Nautical Twilight 6:43 AM EST 6:08 PM EST
Astronomical Twilight 6:08 AM EST 6:43 PM EST
Moon 8:50 PM EST (12/2) 10:37 AM EST (12/2)
Length of Visible Light 10h 13m
Length of Day
9h 09m
Waning Gibbous, 86% of the Moon is Illuminated
Dec 2
Waning Gibbous
Dec 6
Last Quarter
Dec 13
New
Dec 20
First Quarter
Dec 28
Full

Hourly Weather History & Observations

Time (EST) Temp. Windchill Dew Point Humidity Pressure Visibility Wind Dir Wind Speed Gust Speed Precip Events Conditions
12:53 AM 54.0 °F - 50.0 °F 86% 29.92 in 5.0 mi SSW 6.9 mph - 0.13 in Rain Light Rain
1:17 AM 55.4 °F - 48.2 °F 77% 29.90 in 7.0 mi SSW 9.2 mph - 0.02 in Rain Light Rain
1:26 AM 55.4 °F - 48.2 °F 77% 29.90 in 8.0 mi SSW 9.2 mph - 0.02 in Rain Light Rain
1:53 AM 54.0 °F - 48.9 °F 83% 29.91 in 4.0 mi SW 10.4 mph - 0.07 in Rain Light Rain
2:09 AM 53.6 °F - 50.0 °F 88% 29.91 in 4.0 mi SW 8.1 mph - 0.04 in Rain Rain
2:32 AM 53.6 °F - 48.2 °F 82% 29.90 in 9.0 mi SSW 9.2 mph - N/A Rain Light Rain
2:53 AM 53.1 °F - 48.9 °F 86% 29.90 in 5.0 mi South 9.2 mph - 0.08 in Rain Light Rain
3:53 AM 53.1 °F - 48.9 °F 86% 29.89 in 9.0 mi SSW 8.1 mph - 0.01 in   Overcast
4:53 AM 52.0 °F - 48.9 °F 89% 29.89 in 6.0 mi SW 9.2 mph - 0.02 in Rain Light Rain
5:02 AM 53.6 °F - 48.2 °F 82% 29.88 in 6.0 mi SW 11.5 mph - 0.01 in Rain Light Rain
5:16 AM 51.8 °F - 48.2 °F 88% 29.88 in 4.0 mi SSW 9.2 mph - 0.04 in Rain Light Rain
5:41 AM 51.8 °F - 48.2 °F 88% 29.87 in 2.5 mi SW 11.5 mph - 0.17 in Rain Heavy Rain
5:50 AM 51.8 °F - 48.2 °F 88% 29.88 in 6.0 mi SSW 11.5 mph - 0.17 in Rain Light Rain
5:53 AM 52.0 °F - 48.9 °F 89% 29.89 in 7.0 mi SSW 10.4 mph - 0.17 in Rain Light Rain
6:41 AM 53.6 °F - 50.0 °F 88% 29.88 in 7.0 mi SSW 9.2 mph - 0.00 in   Overcast
6:53 AM 53.1 °F - 50.0 °F 89% 29.89 in 6.0 mi SSW 10.4 mph - 0.00 in   Overcast
7:53 AM 53.1 °F - 50.0 °F 89% 29.89 in 9.0 mi SSW 9.2 mph - N/A   Overcast
8:53 AM 53.1 °F - 48.9 °F 86% 29.89 in 5.0 mi SW 13.8 mph - N/A   Overcast
9:18 AM 53.6 °F - 50.0 °F 88% 29.88 in 6.0 mi SW 12.7 mph - N/A   Overcast
9:48 AM 53.6 °F - 50.0 °F 88% 29.88 in 2.5 mi SW 13.8 mph - N/A   Overcast
9:53 AM 53.1 °F - 51.1 °F 93% 29.89 in 2.5 mi SW 13.8 mph - N/A   Overcast
10:53 AM 54.0 °F - 51.1 °F 90% 29.91 in 2.5 mi WSW 13.8 mph - N/A   Overcast
11:53 AM 55.0 °F - 52.0 °F 89% 29.91 in 6.0 mi West 11.5 mph - N/A   Overcast
12:20 PM 57.2 °F - 51.8 °F 82% 29.90 in 6.0 mi West 12.7 mph - N/A   Haze
12:27 PM 57.2 °F - 51.8 °F 82% 29.90 in 7.0 mi WSW 12.7 mph - N/A   Overcast
12:38 PM 57.2 °F - 51.8 °F 82% 29.90 in 7.0 mi West 13.8 mph - N/A   Overcast
12:53 PM 55.9 °F - 52.0 °F 87% 29.91 in 7.0 mi West 11.5 mph - N/A   Overcast
1:08 PM 55.4 °F - 50.0 °F 82% 29.91 in 10.0 mi West 12.7 mph - N/A   Overcast
1:53 PM 55.0 °F - 48.9 °F 80% 29.92 in 10.0 mi WNW 13.8 mph - N/A   Overcast
2:53 PM 54.0 °F - 46.0 °F 75% 29.93 in 9.0 mi WNW 11.5 mph - N/A   Overcast
3:53 PM 53.1 °F - 44.1 °F 71% 29.98 in 10.0 mi West 10.4 mph - N/A   Overcast
4:53 PM 51.1 °F - 43.0 °F 74% 30.01 in 9.0 mi WNW 6.9 mph - N/A   Overcast
5:53 PM 50.0 °F - 42.1 °F 74% 30.04 in 10.0 mi NW 4.6 mph - N/A   Overcast
6:53 PM 48.9 °F - 41.0 °F 74% 30.07 in 10.0 mi WNW 5.8 mph - N/A   Overcast
7:53 PM 48.0 °F - 41.0 °F 77% 30.10 in 10.0 mi North 4.6 mph - N/A   Overcast
8:53 PM 46.9 °F - 41.0 °F 80% 30.12 in 10.0 mi North 4.6 mph - N/A   Overcast
9:53 PM 46.0 °F 44.8 °F 41.0 °F 83% 30.12 in 9.0 mi ENE 3.5 mph - N/A   Overcast
10:53 PM 45.0 °F 42.6 °F 39.9 °F 82% 30.12 in 10.0 mi NE 4.6 mph - N/A   Overcast
11:53 PM 44.1 °F 41.5 °F 39.0 °F 82% 30.14 in 10.0 mi East 4.6 mph - N/A   Overcast